Regional Weather Roundup
Issued by NWS Green Bay, WI

Home | Current Version | Previous Version | Graphics & Text | Print | Product List | Glossary Off
Versions: 1 2 3 4 5 6 7 8 9 10 11 12 13 14 15 16 17 18 19 20 21 22 23 24 25 26 27 28 29 30 31 32 33 34 35 36 37 38 39 40 41 42 43 44 45 46 47 48 49 50

000
ASUS43 KGRB 030000
RWRGRB

NORTH-CENTRAL AND NORTHEAST WISCONSIN REGIONAL WEATHER ROUNDUP
NATIONAL WEATHER SERVICE GREEN BAY WI
700 PM CDT THU JUL 02 2015

WIZ005-009-010>012-018-019-030100-
NORTH CENTRAL WISCONSIN

CITY           SKY/WX    TMP DP  RH WIND       PRES   REMARKS
IRONWOOD       MOSUNNY   73  57  56 W6        29.94S
MANITOWISH WTR NOT AVBL
ARBOR VITAE    NOT AVBL
EAGLE RIVER    NOT AVBL
LAND O LAKES   NOT AVBL
RHINELANDER    SUNNY     73  51  46 SW8       30.01S
PHILLIPS       NOT AVBL
ANTIGO         NOT AVBL
TOMAHAWK       NOT AVBL
MERRILL        NOT AVBL
$$

WIZ013-073-030100-
NORTHEAST WISCONSIN

CITY           SKY/WX    TMP DP  RH WIND       PRES   REMARKS
IRON MOUNTAIN  SUNNY     72  52  49 S6        29.98S
MARINETTE      SUNNY     68  45  42 S6        30.01S
$$

WIZ017-030-035>037-045-030100-
CENTRAL WISCONSIN

CITY           SKY/WX    TMP DP  RH WIND       PRES   REMARKS
MEDFORD        NOT AVBL
WAUSAU         SUNNY     73  49  42 S7        30.00R
MOSINEE        SUNNY     70  52  52 S7        30.02S
MARSHFIELD     SUNNY     72  49  44 S3        30.01S
WISC RAPIDS    SUNNY     72  47  40 S6        30.02S
STEVENS POINT  NOT AVBL
WAUPACA        NOT AVBL
SHAWANO        NOT AVBL
CLINTONVILLE   NOT AVBL
$$

WIZ038-039-048-051-030100-
FOX VALLEY

CITY           SKY/WX    TMP DP  RH WIND       PRES   REMARKS
NWS GREEN BAY  SUNNY     71  46  40 S5        30.02R
APPLETON       SUNNY     70  43  37 SE8       30.02S
OSHKOSH        SUNNY     71  44  37 E5        30.01S
FOND DU LAC    SUNNY     70  46  42 E6        30.01S
$$

WIZ022-050-052-030100-
EAST CENTRAL WISCONSIN

CITY           SKY/WX    TMP DP  RH WIND       PRES   REMARKS
STURGEON BAY   SUNNY     66  45  45 CALM      30.04S
MANITOWOC      NOT AVBL
SHEBOYGAN      SUNNY     65  45  48 NE7       30.02S
$$

LMZ563-521-522-541>543-030100-
LAKESHORE

STATION/POSITION TIME  TEMP    WIND        PRES    VSBY  WAVE
                       AIR SEA DIR/SP/G                  HT/PER
                 (UTC) (F)     (DEG/KT/KT) (MB)    (MI)  (FT/S)
SHEBOYGAN LKSHOR 2300   59      10/  5/  6 1017.0F
KEWAUNEE LKSHORE 2300   62      CALM  /  1 1016.3F
ALGOMA MARINA    2310             CALM       N/A
NORTHPORT PIER   2300   61     140/  6/ 14 1016.3F
N MID LAKE BUOY  2250   58 52   CALM  /  2 1016.6F         0
CHAMBERS ISLAND  2300   69     100/  4/  6 1016.3F
MENOMINEE LKSHOR 2300   68     130/  3/  5 1016.9F
$$



USA.gov is the U.S. government's official web portal to all federal, state and local government web resources and services.